#timestamp,LO_Frequency,Hit,StdDev 
1691625615.4,286047005.9,N
1691625635.2,286047005.1,N
1691625655.1,286047004.7,N
1691625656.0,286047004.7,N
1691625675.8,286047007.1,Y
1691625695.7,286047002.3,P
1691625715.5,286047001.9,N
1691625735.3,286047005.9,P
1691625755.2,286047005.0,N
1691625775.0,286047006.4,Y
1691625775.9,286047006.4,P
1691625795.8,286047004.3,P
1691625815.6,286047002.0,N
1691625835.4,286047002.1,N
1691625855.3,286047002.3,N
1691625875.1,286047000.5,N
1691625895.9,286046999.8,N
1691625915.7,286047000.1,N
1691625935.5,286046999.8,N
1691625955.4,286047003.1,N
1691625975.2,286047002.2,N
1691625995.0,286047002.2,N
1691625995.9,286047002.2,N
1691626015.8,286047001.5,N
1691626035.6,286047002.6,N
1691626055.5,286047002.0,N
1691626075.3,286047002.8,N
1691626095.1,286047001.9,N
1691626115.9,286047001.9,N
1691626135.7,286047003.6,N
1691626155.5,286047001.5,N
1691626175.4,286047003.1,N
1691626195.2,286046999.9,N
1691626215.0,286046998.7,N
1691626216.0,286046998.7,N
1691626235.8,286046999.7,N
1691626255.6,286046999.3,N
1691626275.5,286047000.6,N
1691626295.3,286047002.0,N
1691626315.1,286047000.4,N
1691626335.9,286047000.4,N
1691626355.7,286047001.1,N
1691626375.5,286046999.4,N
1691626395.4,286046995.1,Y
1691626415.2,286046995.8,P
1691626435.1,286046996.9,N
1691626436.0,286046996.9,N
1691626455.8,286047002.8,N
1691626475.6,286047003.1,N
1691626495.5,286047005.2,N
1691626515.3,286047004.8,N
1691626535.2,286047004.8,N
1691626555.9,286047007.3,N
1691626575.7,286047007.0,N
1691626595.6,286047009.0,N
1691626615.4,286047007.8,N
1691626635.2,286047010.0,N
1691626655.1,286047011.8,N
1691626656.0,286047011.8,N
1691626675.8,286047012.3,N
1691626695.7,286047011.1,N
1691626715.5,286047012.2,N
1691626735.3,286047014.0,N
1691626755.2,286047009.7,N
1691626775.9,286047012.1,N
1691626795.7,286047011.7,N
1691626815.6,286047011.5,N
1691626835.4,286047013.3,N
1691626855.3,286047015.0,N
1691626875.1,286047015.5,N
1691626876.0,286047015.5,N
1691626895.8,286047012.8,N
1691626915.7,286047011.3,N
1691626935.5,286047012.8,N
1691626955.3,286047011.3,N
1691626975.2,286047014.1,N
1691626995.0,286047015.1,Y
1691626995.9,286047015.1,P
1691627015.8,286047005.8,N
1691627035.6,286047006.6,N
1691627055.4,286047008.6,N
1691627075.3,286047009.9,Y
1691627095.1,286047000.5,P
1691627115.8,286046998.2,N
1691627135.7,286046996.9,N
1691627155.5,286046999.0,N
1691627175.4,286046998.6,N
1691627195.2,286046998.7,N
1691627215.0,286046999.9,N
1691627215.9,286046999.9,N
1691627235.8,286047000.2,N
1691627255.6,286047004.7,N
1691627275.5,286047005.9,N
1691627295.3,286047001.6,N
1691627315.1,286046999.7,N
1691627335.9,286047002.8,N
1691627355.7,286047000.0,N
1691627375.5,286047001.1,N
1691627395.4,286046999.1,N
1691627415.2,286047000.4,N
1691627435.1,286046996.8,N
1691627436.0,286046996.8,N
1691627455.8,286046998.6,N
1691627475.6,286047001.2,N
1691627495.5,286046996.9,N
1691627515.3,286046998.3,N
1691627535.1,286047002.4,N
1691627555.9,286047000.0,N
1691627575.7,286047000.3,N
1691627595.6,286046998.5,N
1691627615.4,286047000.4,N
1691627635.2,286047000.2,N
1691627655.1,286047011.9,Y
1691627656.0,286047000.7,P
1691627675.8,286047000.9,N
1691627695.6,286046999.3,N
1691627715.5,286046998.4,N
1691627735.3,286047000.8,N
1691627755.2,286047000.1,N
1691627775.9,286047001.7,N
1691627795.7,286046999.7,N
1691627815.6,286046999.7,N
1691627835.4,286047000.7,N
1691627855.2,286046998.1,N
1691627875.1,286046996.9,Y
1691627876.0,286046996.9,P
1691627895.8,286046998.2,N
1691627915.7,286047004.3,P
1691627935.5,286047005.2,N
1691627955.3,286047006.2,N
1691627975.2,286047007.8,N
1691627995.0,286047008.1,N
1691627995.9,286047008.1,N
1691628015.7,286047011.9,N
1691628035.6,286047009.9,N
1691628055.4,286047009.4,N
1691628075.3,286047009.6,N
1691628095.1,286047009.4,N
1691628096.0,286047009.4,N
1691628115.8,286047009.5,N
1691628135.7,286047010.9,N
1691628155.5,286047012.7,N
1691628175.4,286047015.2,Y
1691628195.2,286047010.1,P
1691628215.0,286047011.2,P
1691628215.9,286047011.2,P
1691628235.8,286047010.3,Y
1691628255.6,286046998.3,P
1691628275.4,286046999.3,N
1691628295.3,286046998.6,N
1691628315.1,286046999.5,N
1691628335.9,286046992.1,N
1691628355.7,286046990.7,N
1691628375.5,286046992.7,N
1691628395.4,286046992.6,N
1691628415.2,286046991.1,N
1691628435.0,286046988.9,N
1691628436.0,286046988.9,N
1691628455.8,286046992.4,N
1691628475.6,286046996.6,N
1691628495.5,286046998.6,N
1691628515.3,286047000.7,N
1691628535.1,286047000.4,N
1691628555.9,286047003.9,N
1691628575.7,286047003.3,N
1691628595.5,286047004.7,N
1691628615.4,286047005.2,N
1691628635.2,286047008.6,N
1691628655.1,286047010.3,N
1691628656.0,286047010.3,N
1691628675.8,286047009.8,N
1691628695.6,286047011.0,N
1691628715.5,286047011.4,N
1691628735.3,286047011.5,N
1691628755.2,286047010.9,N
1691628775.9,286047013.6,N
1691628795.7,286047011.9,N
1691628815.6,286047011.0,N
1691628835.4,286047013.1,N
1691628855.2,286047014.4,N
1691628875.1,286047017.1,N
1691628876.0,286047017.1,N
1691628895.8,286047016.5,N
1691628915.7,286047016.8,N
1691628935.5,286047016.7,N
1691628955.3,286047018.0,N
1691628975.2,286047019.4,N
1691628995.9,286047020.2,N
1691629015.3,286047019.7,N
1691629035.2,286047019.7,Y
1691629055.0,286047008.5,P
1691629055.9,286047008.5,P
1691629075.8,286047007.8,P
1691629095.6,286047007.7,Y
1691629115.4,286047001.5,P
1691629135.3,286047001.7,N
1691629155.1,286047002.4,N
1691629175.8,286047002.6,N
1691629195.7,286047000.0,N
